[[{"header":{"parameterUnit":"m.s-1","parameterCategory":1,"la1":30.2991,"la2":30.254,"lo1":-89.0895,"lo2":-89.0444,"dy":0.0017,"dx":0.0017,"nx":28,"ny":28,"refTime":"2025-04-15T21:00:00:Z","depth":0,"parameterNumber":2,"parameterNumberName":"U-component_of_WINDS"},"data":[0,0,0,0,0,0,0,0,0,0,0,0,0,0,0,0,0,0,0,0,0,0,0,0,0,0,0,0,0,0,0,0,0,0,0,0,0,0,0,0,0,0,0,0,0,0,0,0,0,0,0,0,0,0,0,0,0,0,0.7193,0.7194,0,0.7296,0.7297,0.7298,0.7353,0.7353,0.7354,0.7354,0.7457,0.7459,0.7462,0,0,0,0,0,0,0,0,0,0,0,0,0,0.7042,0.7045,0.7193,0.7194,0.7196,0.7295,0.7297,0.7298,0.7353,0.7353,0.7354,0.7354,0.7456,0.7459,0.7462,0,0,0,0,0,0,0,0,0,0,0,0,0,0.7123,0.7046,0.7193,0.7235,0.724,0.7295,0.7297,0.7299,0.7353,0.7353,0.7354,0.7354,0.7455,0.7459,0.7462,0.7483,0,0,0.7474,0.7476,0,0,0,0,0,0,0,0,0.7118,0.7128,0.7228,0.7232,0.7238,0.7312,0.7282,0.736,0.7353,0.731,0.7354,0.7354,0.7408,0.7416,0.7435,0.7488,0.7492,0.7475,0.7477,0.7479,0.748,0,0,0,0,0,0,0,0.7112,0.7124,0.7234,0.7229,0.7235,0.7248,0.726,0.7297,0.7357,0.7314,0.7318,0.733,0.7411,0.7431,0.7438,0.7494,0.7475,0.7478,0.7481,0.7482,0.7567,0.7567,0,0,0,0,0,0,0.71,0.7119,0.723,0.7237,0.7177,0.7251,0.7264,0.7288,0.7357,0.7367,0.7329,0.7332,0.7424,0.7433,0.7441,0.7469,0.7479,0.7483,0.7485,0.7568,0.7567,0.7567,0,0,0,0,0,0,0.7097,0.711,0.7226,0.7179,0.7195,0.7253,0.728,0.729,0.731,0.7368,0.7379,0.7339,0.7424,0.7436,0.7472,0.7474,0.7484,0.7488,0.7568,0.7568,0.7567,0.7525,0,0,0,0,0,0,0.7092,0.7108,0.7117,0.7179,0.7197,0.7256,0.728,0.7292,0.7317,0.7321,0.738,0.739,0.7426,0.7466,0.7476,0.7479,0.7491,0.7568,0.7568,0.7567,0.7527,0.7524,0.7521,0,0,0,0,0,0.7087,0.7101,0.7117,0.713,0.721,0.7256,0.7266,0.7307,0.7316,0.7325,0.7363,0.7388,0.7472,0.7469,0.7481,0.7485,0.7568,0.7568,0.7567,0.7528,0.7524,0.7521,0,0,0,0,0,0,0.7037,0.711,0.7129,0.7164,0.7203,0.7265,0.7278,0.7302,0.734,0.7342,0.7391,0.7404,0.7435,0.7464,0.746,0.7508,0.7522,0.7524,0.7488,0.7485,0.7482,0.7475,0.7494,0,0,0,0,0,0.7031,0.7063,0.7124,0.7149,0.7168,0.7219,0.7241,0.7269,0.7312,0.7329,0.7369,0.7409,0.7444,0.7466,0.7502,0.7531,0.7544,0.754,0.7537,0.7534,0.7536,0.7552,0.7551,0.7567,0.7567,0.7567,0,0,0.7017,0.706,0.7078,0.714,0.7174,0.7205,0.7233,0.7265,0.7288,0.7333,0.737,0.7401,0.7448,0.7481,0.7497,0.7506,0.7534,0.7534,0.7532,0.7534,0.7552,0.755,0.7549,0.7567,0.7567,0.7567,0,0,0.7008,0.7044,0.7069,0.7102,0.7153,0.7187,0.7193,0.7251,0.7273,0.7311,0.7345,0.7373,0.7433,0.7466,0.749,0.7492,0.7516,0.7502,0.7487,0.7503,0.7502,0.7501,0.7501,0.7501,0.7503,0.7503,0.7503,0,0.6984,0.7033,0.7078,0.7108,0.7134,0.7176,0.7201,0.7231,0.7291,0.7307,0.7316,0.7392,0.7427,0.7467,0.7468,0.7486,0.7494,0.7496,0.7499,0.7498,0.7498,0.7499,0.7499,0.7501,0.7502,0.7502,0.7502,0,0.7001,0.7035,0.7048,0.7105,0.7133,0.716,0.7207,0.7229,0.7255,0.7288,0.7325,0.7369,0.7414,0.7425,0.7451,0.7469,0.7473,0.7489,0.7505,0.7494,0.7495,0.7496,0.7498,0.7499,0.75,0.75,0,0,0.6964,0.7045,0.7049,0.7076,0.7135,0.7161,0.7189,0.7234,0.7252,0.7291,0.7316,0.7365,0.7381,0.7408,0.7438,0.7452,0.7449,0.7467,0.7469,0.7461,0.7471,0.7458,0.7458,0.7466,0.7466,0.7466,0.7467,0,0.6963,0.7017,0.7057,0.7095,0.7126,0.7167,0.7191,0.723,0.7261,0.7291,0.7325,0.7359,0.7378,0.7394,0.741,0.7446,0.7452,0.7447,0.7488,0.7489,0.7475,0.7459,0.7445,0.7444,0.7468,0.7468,0.7468,0,0.697,0.7008,0.7049,0.7104,0.7119,0.714,0.7184,0.7212,0.7256,0.7278,0.7308,0.7338,0.7369,0.7381,0.7424,0.742,0.7439,0.7459,0.746,0.7465,0.7478,0.7463,0.7444,0.7444,0.747,0.747,0.747,0,0.6938,0.7,0.7032,0.7053,0.7119,0.7133,0.716,0.7205,0.7229,0.7266,0.7282,0.7323,0.7345,0.7375,0.7415,0.7421,0.7454,0.7469,0.7472,0.7471,0.7477,0.7476,0.746,0.749,0.749,0.749,0.749,0,0.6932,0.6955,0.7019,0.7038,0.7065,0.7111,0.7136,0.7167,0.7206,0.7232,0.727,0.7293,0.7345,0.7374,0.7406,0.7436,0.7445,0.7463,0.7471,0.746,0.7457,0.7473,0.7474,0.749,0.749,0.749,0.749,0,0.6901,0.6944,0.6982,0.7041,0.7056,0.7074,0.7124,0.7144,0.7177,0.7209,0.7219,0.7271,0.7307,0.735,0.7401,0.7422,0.7449,0.7461,0.7434,0.7439,0.7438,0.7437,0.7432,0.7433,0.7462,0.7461,0.7461,0,0.6894,0.6913,0.6974,0.6994,0.7021,0.7053,0.7078,0.7123,0.7147,0.7198,0.7212,0.7251,0.7285,0.7342,0.7383,0.7422,0.7435,0.743,0.7441,0.7428,0.7434,0.7432,0.7434,0.7427,0.7426,0.7426,0.7426,0,0.6878,0.6898,0.6933,0.6974,0.7002,0.7037,0.7073,0.7087,0.714,0.7165,0.7202,0.7229,0.728,0.7318,0.7362,0.739,0.7416,0.7422,0.7425,0.7413,0.7396,0.7404,0.7426,0.7422,0.7422,0.7423,0.7423,0.7423,0.6859,0.6877,0.6922,0.6959,0.6991,0.7024,0.7046,0.7081,0.7114,0.7159,0.7184,0.7221,0.7264,0.7325,0.7352,0.7381,0.739,0.7394,0.7395,0.7395,0.7391,0.7392,0.7389,0.739,0.739,0.739,0.739,0,0.6844,0.6875,0.6908,0.6957,0.6986,0.7008,0.7049,0.7071,0.7104,0.7142,0.7174,0.7217,0.7254,0.7298,0.7338,0.7353,0.7366,0.7362,0.7361,0.7367,0.7381,0.7375,0.7351,0.7351,0.7351,0.7351,0.7351,0.7351,0.6839,0.6871,0.6896,0.6944,0.6975,0.7012,0.7033,0.7063,0.7094,0.714,0.7171,0.72,0.724,0.7283,0.7318,0.733,0.7343,0.7335,0.735,0.7363,0.7366,0.7369,0.7363,0.7337,0.7337,0.7333,0.7333,0.7333]},{"header":{"parameterUnit":"m.s-1","parameterCategory":1,"la1":30.2991,"la2":30.254,"lo1":-89.0895,"lo2":-89.0444,"dy":0.0017,"dx":0.0017,"nx":28,"ny":28,"refTime":"2025-04-15T21:00:00:Z","depth":0,"parameterNumber":3,"parameterNumberName":"V-component_of_WINDS"},"data":[0,0,0,0,0,0,0,0,0,0,0,0,0,0,0,0,0,0,0,0,0,0,0,0,0,0,0,0,0,0,0,0,0,0,0,0,0,0,0,0,0,0,0,0,0,0,0,0,0,0,0,0,0,0,0,0,0,0,2.7248,2.7247,0,2.7225,2.7225,2.7224,2.7163,2.7161,2.716,2.7159,2.7135,2.7136,2.7136,0,0,0,0,0,0,0,0,0,0,0,0,0,2.7236,2.7237,2.7248,2.7247,2.7247,2.7225,2.7225,2.7224,2.7163,2.7161,2.716,2.7158,2.7135,2.7136,2.7136,0,0,0,0,0,0,0,0,0,0,0,0,0,2.723,2.7237,2.7248,2.7214,2.7211,2.7225,2.7225,2.7224,2.7163,2.7161,2.7159,2.7158,2.7135,2.7136,2.7137,2.7182,0,0,2.7139,2.714,0,0,0,0,0,0,0,0,2.7231,2.7231,2.7219,2.7216,2.7213,2.7195,2.7212,2.721,2.7164,2.7181,2.7159,2.7157,2.7157,2.7156,2.7156,2.7181,2.718,2.7139,2.714,2.714,2.7141,0,0,0,0,0,0,0,2.7231,2.7231,2.7239,2.7219,2.7215,2.7199,2.7196,2.7211,2.718,2.718,2.7175,2.7173,2.7154,2.7155,2.7155,2.7179,2.7139,2.714,2.7141,2.7141,2.7238,2.7239,0,0,0,0,0,0,2.7236,2.7232,2.7239,2.7238,2.7217,2.7201,2.7198,2.7202,2.718,2.7175,2.7175,2.717,2.7154,2.7154,2.7154,2.7203,2.714,2.7141,2.7142,2.7236,2.7238,2.724,0,0,0,0,0,0,2.7236,2.7238,2.724,2.7234,2.7233,2.7203,2.7209,2.7203,2.7203,2.7176,2.7171,2.7181,2.7153,2.7152,2.7175,2.7201,2.7142,2.7142,2.7233,2.7236,2.7239,2.7303,0,0,0,0,0,0,2.7236,2.7238,2.7256,2.7235,2.7233,2.7262,2.7211,2.7204,2.7205,2.7199,2.7181,2.7176,2.7151,2.7174,2.7176,2.7201,2.7143,2.7231,2.7235,2.7238,2.7299,2.7308,2.7316,0,0,0,0,0,2.7236,2.7275,2.7257,2.7258,2.7255,2.7264,2.7263,2.7234,2.7208,2.7224,2.7207,2.7176,2.7199,2.7176,2.7178,2.7205,2.7229,2.7233,2.7238,2.7295,2.7306,2.7316,0,0,0,0,0,0,2.73,2.7272,2.7251,2.7284,2.7277,2.7254,2.7274,2.7248,2.7248,2.7242,2.7206,2.7202,2.7229,2.7219,2.7195,2.7246,2.7208,2.7214,2.7251,2.7262,2.7271,2.7272,2.7144,0,0,0,0,0,2.7318,2.7329,2.7303,2.7335,2.7332,2.7304,2.7307,2.7285,2.7276,2.7273,2.7257,2.7249,2.7253,2.7258,2.7261,2.7297,2.7291,2.7316,2.7325,2.7333,2.7337,2.7353,2.7363,2.7255,2.7255,2.7255,0,0,2.7355,2.7341,2.735,2.7347,2.7339,2.735,2.7302,2.7316,2.7323,2.7275,2.7294,2.7282,2.7271,2.73,2.7312,2.7293,2.7366,2.7338,2.7345,2.7345,2.7359,2.7369,2.7378,2.7258,2.7258,2.7257,0,0,2.7428,2.7419,2.7443,2.7436,2.7424,2.7405,2.7411,2.7391,2.7381,2.74,2.7363,2.7371,2.7381,2.7374,2.7371,2.744,2.7411,2.7442,2.7487,2.7504,2.7512,2.752,2.7542,2.755,2.7447,2.7447,2.7447,0,2.7476,2.7491,2.7459,2.7475,2.7474,2.7431,2.7454,2.7448,2.7438,2.7438,2.7417,2.7426,2.7416,2.7441,2.7458,2.7458,2.7462,2.7443,2.7514,2.7521,2.7527,2.7548,2.7556,2.7451,2.745,2.745,2.7449,0,2.7548,2.7559,2.7581,2.7571,2.7572,2.7592,2.7563,2.7568,2.7546,2.7529,2.7548,2.7534,2.7532,2.7537,2.7516,2.7559,2.7547,2.752,2.7481,2.7541,2.756,2.7568,2.7456,2.7454,2.7453,2.7452,0,0,2.7661,2.7633,2.7641,2.7635,2.7618,2.7625,2.7642,2.7641,2.7645,2.7639,2.7651,2.766,2.7634,2.7632,2.7609,2.7624,2.7676,2.7595,2.7594,2.7609,2.772,2.7739,2.7749,2.7658,2.7659,2.766,2.772,0,2.7727,2.7755,2.7726,2.7759,2.7768,2.7726,2.7741,2.7731,2.7716,2.772,2.7702,2.7708,2.7675,2.7673,2.7686,2.7667,2.7698,2.7663,2.7667,2.7667,2.7669,2.7759,2.7779,2.7836,2.7728,2.7729,2.773,0,2.7809,2.7806,2.784,2.7818,2.7821,2.7835,2.7829,2.7835,2.7823,2.781,2.7807,2.7779,2.7793,2.7757,2.7774,2.7751,2.7751,2.7742,2.7744,2.7741,2.7701,2.7757,2.7854,2.7862,2.7741,2.7741,2.774,0,2.7884,2.7889,2.7909,2.7906,2.7882,2.7893,2.7883,2.7869,2.7869,2.7865,2.7864,2.7862,2.786,2.7859,2.7831,2.7807,2.7851,2.7813,2.7839,2.784,2.7849,2.7849,2.7946,2.7853,2.7853,2.7853,2.7853,0,2.7961,2.7982,2.7942,2.7955,2.7977,2.7944,2.7967,2.7953,2.7941,2.7949,2.7914,2.7922,2.7885,2.7889,2.7868,2.7884,2.7884,2.7873,2.7867,2.7875,2.7876,2.7874,2.7868,2.7855,2.7854,2.7854,2.7854,0,2.8048,2.8023,2.8041,2.8017,2.8012,2.8029,2.8008,2.8018,2.7999,2.801,2.801,2.7981,2.7984,2.7956,2.7954,2.7939,2.7965,2.7952,2.7969,2.7964,2.7991,2.7988,2.8088,2.8099,2.8001,2.8002,2.8003,0,2.8098,2.8113,2.8091,2.8093,2.8086,2.8091,2.809,2.8058,2.8059,2.8046,2.8056,2.8056,2.8054,2.806,2.8038,2.8035,2.8021,2.8056,2.802,2.8028,2.8019,2.8017,2.8018,2.8063,2.8065,2.8066,2.8066,0,2.8188,2.8174,2.8175,2.8171,2.8171,2.8167,2.816,2.8164,2.8129,2.8131,2.8133,2.8131,2.8128,2.8127,2.812,2.811,2.8082,2.8078,2.8084,2.8091,2.8099,2.8093,2.7987,2.8076,2.8075,2.8074,2.8073,2.8073,2.8256,2.8267,2.8252,2.8254,2.8245,2.8239,2.8246,2.8228,2.8229,2.8224,2.8205,2.821,2.8195,2.8183,2.8175,2.8177,2.816,2.8169,2.817,2.8173,2.8177,2.81,2.8176,2.8176,2.8176,2.8175,2.8175,0,2.8342,2.833,2.8332,2.8323,2.8324,2.8298,2.8288,2.829,2.8295,2.8284,2.8283,2.8284,2.8283,2.826,2.8256,2.8262,2.8249,2.8262,2.826,2.8258,2.8194,2.8188,2.8273,2.8273,2.8273,2.8273,2.8273,2.8273,2.8387,2.8403,2.8387,2.8398,2.8386,2.839,2.8387,2.838,2.8371,2.8374,2.8373,2.8359,2.8343,2.8337,2.8334,2.8327,2.8326,2.8343,2.8332,2.8272,2.8263,2.8254,2.8248,2.8344,2.8344,2.8396,2.8396,2.8397]}]]